EW3958 Weather Reports


Display with metric or nautical units.
time (UTC)temp
F
wind
direction
speed
MPH
gust
MPH
rain 1hr
in
rain 24hr
in
rain mn
in
humidity
%
barometer
mb
20180221105020 -6 262 0.0 3.0 0.00 0.02 0.00 77 1029.0
20180221104520 -6 262 0.0 3.0 0.00 0.02 0.00 78 1029.1
20180221104020 -7 247 0.0 1.0 0.00 0.02 0.00 77 1029.2
20180221103520 -7 237 0.0 1.0 0.00 0.02 0.00 76 1029.2
20180221103021 -7 235 0.0 1.0 0.00 0.02 0.00 77 1029.1
20180221102520 -7 233 0.0 1.0 0.00 0.02 0.00 76 1029.1
20180221102020 -6 238 1.0 5.0 0.00 0.02 0.00 76 1029.1
20180221101520 -5 242 1.0 5.0 0.00 0.02 0.00 76 1029.1
20180221101020 -5 254 0.0 5.0 0.00 0.02 0.00 77 1029.2
20180221100521 -6 237 0.0 3.0 0.00 0.02 0.00 76 1029.3
20180221100021 -5 236 0.0 3.0 0.00 0.02 0.00 76 1029.4
20180221095521 -6 235 2.0 5.0 0.00 0.02 0.00 76 1029.4
20180221095021 -5 248 4.0 6.0 0.00 0.02 0.00 76 1029.3
20180221094520 -6 256 4.0 7.0 0.00 0.02 0.00 77 1029.5
20180221094020 -6 259 4.0 7.0 0.00 0.02 0.00 77 1029.4
20180221093520 -7 263 1.0 7.0 0.00 0.02 0.00 78 1029.3
20180221093020 -8 247 0.0 3.0 0.00 0.02 0.00 78 1029.5
20180221092520 -8 0 0.0 0.0 0.00 0.02 0.00 77 1029.6
20180221092020 -8 243 0.0 1.0 0.00 0.02 0.00 77 1029.5
20180221090521 -8 252 2.0 5.0 0.00 0.02 0.00 77 1029.6
20180221085020 -10 230 0.0 4.0 0.00 0.02 0.00 78 1029.9
20180221084520 -10 0 0.0 0.0 0.00 0.02 0.00 78 1030.0
20180221084020 -10 218 0.0 1.0 0.00 0.02 0.00 78 1029.9
20180221083521 -9 218 0.0 1.0 0.00 0.02 0.00 77 1030.0
20180221083021 -9 217 0.0 1.0 0.00 0.02 0.00 77 1029.9
20180221082521 -8 215 0.0 7.0 0.00 0.02 0.00 77 1030.0
20180221082020 -8 232 2.0 9.0 0.00 0.02 0.00 76 1029.9
20180221081520 -8 234 3.0 9.0 0.00 0.02 0.00 76 1029.9
20180221081020 -7 233 2.0 9.0 0.00 0.02 0.00 78 1029.9
20180221080520 -9 245 0.0 7.0 0.00 0.02 0.00 78 1029.8
20180221080020 -10 252 0.0 3.0 0.00 0.02 0.00 78 1029.8
20180221075520 -10 252 0.0 3.0 0.00 0.02 0.00 78 1029.9
20180221075020 -10 0 0.0 0.0 0.00 0.02 0.00 78 1029.9
20180221074520 -10 249 0.0 4.0 0.00 0.02 0.00 78 1029.7
20180221074021 -10 249 0.0 4.0 0.00 0.04 0.00 78 1029.8
20180221073520 -10 246 0.0 2.0 0.00 0.04 0.00 77 1029.7
20180221073020 -10 246 0.0 1.0 0.00 0.04 0.00 77 1029.7
20180221072520 -9 0 0.0 0.0 0.00 0.04 0.00 78 1029.8
20180221072020 -10 242 0.0 1.0 0.00 0.04 0.00 77 1029.6
20180221071520 -9 242 0.0 1.0 0.00 0.04 0.00 78 1029.6
20180221071020 -9 0 0.0 0.0 0.00 0.04 0.00 77 1029.6
20180221070520 -9 0 0.0 0.0 0.00 0.04 0.00 77 1029.6
20180221070020 -9 0 0.0 0.0 0.00 0.04 0.00 77 1029.7
20180221065520 -8 240 0.0 5.0 0.00 0.05 0.00 77 1029.6
20180221065020 -9 240 0.0 5.0 0.00 0.06 0.00 77 1029.4
20180221064520 -9 239 0.0 4.0 0.00 0.06 0.00 78 1029.3
20180221064021 -10 239 0.0 4.0 0.00 0.08 0.00 78 1029.2
20180221063520 -10 233 0.0 1.0 0.00 0.08 0.00 78 1029.2
20180221063020 -9 0 0.0 0.0 0.00 0.08 0.00 77 1029.1
20180221062520 -9 0 0.0 0.0 0.00 0.08 0.00 78 1028.9
20180221062020 -9 0 0.0 0.0 0.00 0.08 0.00 78 1028.8
20180221061520 -10 247 0.0 2.0 0.00 0.08 0.00 78 1028.6
20180221061021 -10 247 0.0 2.0 0.00 0.08 0.00 77 1028.6
20180221060520 -9 250 0.0 3.0 0.00 0.10 0.00 78 1028.4
20180221060021 -9 249 1.0 5.0 0.00 0.10 0.00 79 1028.5
20180221055521 -10 252 1.0 6.0 0.00 0.10 0.11 78 1028.6
20180221055020 -10 255 1.0 6.0 0.00 0.10 0.11 78 1028.6
20180221054519 -10 0 0.0 0.0 0.00 0.10 0.11 78 1028.4
20180221054020 -10 0 0.0 0.0 0.00 0.11 0.11 78 1028.3
20180221053520 -10 0 0.0 0.0 0.00 0.11 0.11 79 1028.2
20180221053020 -11 0 0.0 0.0 0.00 0.11 0.11 79 1028.2
20180221052520 -11 0 0.0 0.0 0.00 0.11 0.11 78 1028.3
20180221052020 -11 0 0.0 0.0 0.00 0.11 0.11 79 1028.3
20180221051520 -11 0 0.0 0.0 0.00 0.11 0.11 79 1028.2
20180221051020 -11 0 0.0 0.0 0.00 0.12 0.11 79 1028.2
20180221050520 -11 0 0.0 0.0 0.00 0.12 0.11 79 1028.1
20180221050022 -11 0 0.0 0.0 0.00 0.12 0.11 78 1028.1
20180221045520 -11 0 0.0 0.0 0.00 0.12 0.11 78 1028.1
20180221045020 -10 0 0.0 0.0 0.00 0.12 0.11 77 1028.0
20180221044520 -10 0 0.0 0.0 0.00 0.12 0.11 78 1028.1
20180221044020 -10 0 0.0 0.0 0.00 0.12 0.11 78 1028.1
20180221043520 -10 0 0.0 0.0 0.00 0.12 0.11 78 1028.0
20180221043020 -10 0 0.0 0.0 0.00 0.12 0.11 78 1027.9
20180221042519 -10 0 0.0 0.0 0.00 0.12 0.11 78 1027.7
20180221042020 -10 0 0.0 0.0 0.00 0.12 0.11 77 1027.8
20180221041520 -10 0 0.0 0.0 0.00 0.12 0.11 78 1027.7
20180221041021 -9 0 0.0 0.0 0.00 0.12 0.11 79 1027.7
20180221040520 -9 0 0.0 0.0 0.00 0.12 0.11 78 1027.7
20180221040022 -10 0 0.0 0.0 0.00 0.13 0.11 78 1027.8
20180221035520 -10 0 0.0 0.0 0.00 0.13 0.11 78 1027.7
20180221035020 -10 0 0.0 0.0 0.00 0.13 0.11 78 1027.6
20180221034520 -9 0 0.0 0.0 0.00 0.13 0.11 79 1027.5
20180221034020 -9 0 0.0 0.0 0.00 0.14 0.11 79 1027.4
20180221033520 -10 0 0.0 0.0 0.00 0.14 0.11 78 1027.3
20180221033020 -9 0 0.0 0.0 0.00 0.16 0.11 78 1027.3
20180221032520 -9 0 0.0 0.0 0.00 0.16 0.11 79 1027.2
20180221032023 -9 0 0.0 0.0 0.00 0.16 0.11 78 1027.0
20180221031519 -8 0 0.0 0.0 0.00 0.16 0.11 79 1027.0
20180221031023 -9 278 1.0 3.0 0.00 0.16 0.11 78 1026.8
20180221030520 -8 278 1.0 3.0 0.00 0.16 0.11 78 1026.8
20180221030022 -8 279 0.0 3.0 0.00 0.16 0.11 78 1026.5
20180221025520 -7 0 0.0 0.0 0.00 0.17 0.11 78 1026.5
20180221025019 -7 0 0.0 0.0 0.00 0.17 0.11 78 1026.4
20180221024520 -7 0 0.0 0.0 0.00 0.17 0.11 78 1026.4
20180221024020 -7 0 0.0 0.0 0.00 0.17 0.11 78 1026.3
20180221023520 -6 0 0.0 0.0 0.00 0.17 0.11 78 1026.3
20180221023021 -6 0 0.0 0.0 0.00 0.18 0.11 78 1026.3
20180221022520 -7 0 0.0 0.0 0.00 0.18 0.11 78 1026.3
20180221022019 -7 0 0.0 0.0 0.00 0.18 0.11 78 1026.1
20180221021519 -6 0 0.0 0.0 0.00 0.18 0.11 77 1026.2
20180221021020 -5 0 0.0 0.0 0.00 0.18 0.11 77 1026.2
20180221020520 -6 0 0.0 0.0 0.00 0.18 0.11 77 1026.3
20180221020021 -6 0 0.0 0.0 0.00 0.18 0.11 76 1026.3
20180221015520 -5 0 0.0 0.0 0.00 0.18 0.11 77 1026.3
20180221015020 -5 0 0.0 0.0 0.00 0.18 0.11 76 1026.1
20180221014520 -5 0 0.0 0.0 0.00 0.18 0.11 77 1026.1
20180221014020 -5 0 0.0 0.0 0.00 0.18 0.11 76 1026.1
20180221013520 -4 279 0.0 2.0 0.00 0.18 0.11 76 1026.1
20180221013019 -4 279 1.0 3.0 0.00 0.18 0.11 76 1026.0
20180221012520 -4 282 2.0 3.0 0.00 0.18 0.11 77 1026.0
20180221012020 -4 286 1.0 3.0 0.00 0.18 0.11 76 1025.9
20180221011520 -3 288 0.0 2.0 0.00 0.18 0.11 76 1025.9
20180221011020 -3 288 0.0 2.0 0.00 0.18 0.11 75 1025.8
20180221010520 -3 288 0.0 2.0 0.00 0.18 0.11 75 1025.5
20180221010021 -2 289 0.0 2.0 0.00 0.18 0.11 75 1025.5
20180221005519 -1 0 0.0 0.0 0.00 0.18 0.11 74 1025.4
20180221005019 0 289 0.0 1.0 0.00 0.18 0.11 73 1025.3
20180221004520 0 289 0.0 3.0 0.00 0.18 0.11 73 1025.3
20180221004020 0 289 0.0 3.0 0.00 0.18 0.11 72 1025.1
20180221003520 1 290 0.0 2.0 0.00 0.18 0.11 71 1025.0
20180221003020 3 304 0.0 3.0 0.00 0.18 0.11 70 1025.0
20180221002523 3 308 1.0 4.0 0.00 0.18 0.11 70 1025.0
20180221002019 3 301 1.0 4.0 0.00 0.18 0.11 70 1024.9
20180221001519 3 293 1.0 4.0 0.00 0.18 0.11 69 1024.7
20180221001020 4 289 1.0 4.0 0.00 0.18 0.11 69 1024.7
20180221000520 4 282 1.0 5.0 0.00 0.18 0.11 68 1024.5
20180221000020 5 277 2.0 5.0 0.00 0.18 0.11 68 1024.4
20180220235520 5 287 3.0 7.0 0.00 0.18 0.11 67 1024.3
20180220235020 5 292 4.0 10.0 0.00 0.18 0.11 66 1024.2
20180220234519 6 292 4.0 10.0 0.00 0.18 0.11 66 1024.2
20180220234019 6 289 3.0 10.0 0.00 0.18 0.11 66 1024.1
20180220233519 6 288 4.0 10.0 0.00 0.18 0.11 66 1024.0
20180220233020 6 283 4.0 9.0 0.00 0.18 0.11 66 1024.0
20180220232520 7 274 3.0 7.0 0.00 0.18 0.11 65 1023.9
20180220232020 7 271 4.0 10.0 0.00 0.18 0.11 65 1023.9
20180220231520 7 268 5.0 10.0 0.00 0.18 0.11 65 1023.9
20180220231021 7 267 6.0 11.0 0.00 0.18 0.11 66 1023.9
20180220230521 7 274 6.0 11.0 0.00 0.18 0.11 65 1023.8
20180220230021 7 273 5.0 8.0 0.00 0.18 0.11 65 1023.8
20180220225521 7 269 6.0 10.0 0.00 0.18 0.11 65 1023.8
20180220225021 8 270 5.0 10.0 0.00 0.18 0.11 65 1023.7
20180220224520 8 269 5.0 10.0 0.00 0.18 0.11 65 1023.5
20180220224020 9 265 5.0 10.0 0.00 0.18 0.11 65 1023.5
20180220223520 9 263 6.0 11.0 0.00 0.18 0.11 65 1023.5
20180220223020 9 270 7.0 11.0 0.00 0.18 0.11 65 1023.5
20180220222520 9 272 6.0 10.0 0.00 0.18 0.11 63 1023.3
20180220222019 9 279 5.0 8.0 0.00 0.18 0.11 63 1023.3
20180220221519 10 281 5.0 11.0 0.00 0.18 0.11 63 1023.2
20180220221019 9 270 6.0 11.0 0.00 0.18 0.11 62 1023.1
20180220220520 9 268 6.0 12.0 0.00 0.18 0.11 63 1023.0
20180220220021 9 277 6.0 12.0 0.00 0.18 0.11 63 1022.9
20180220215520 9 297 5.0 12.0 0.00 0.18 0.11 61 1022.8
20180220215020 10 312 7.0 12.0 0.00 0.18 0.11 61 1022.8
20180220214520 9 315 7.0 12.0 0.00 0.18 0.11 59 1022.8
20180220214020 10 317 8.0 12.0 0.00 0.18 0.11 59 1022.7
20180220213519 10 317 9.0 13.0 0.00 0.18 0.11 60 1022.7
20180220213019 10 308 7.0 13.0 0.00 0.18 0.11 60 1022.6
20180220212520 10 301 6.0 11.0 0.00 0.18 0.11 62 1022.5
20180220212020 10 300 6.0 13.0 0.00 0.18 0.11 62 1022.4
20180220211520 9 295 5.0 13.0 0.00 0.18 0.11 62 1022.4
20180220211020 10 327 8.0 13.0 0.00 0.18 0.11 63 1022.3
20180220210519 9 340 8.0 13.0 0.00 0.18 0.11 62 1022.1
20180220210021 9 313 5.0 10.0 0.00 0.18 0.11 63 1022.1
20180220205520 8 294 6.0 11.0 0.00 0.18 0.11 62 1022.1
20180220205019 10 291 8.0 11.0 0.00 0.18 0.11 63 1021.8
20180220204519 10 295 8.0 13.0 0.00 0.18 0.11 63 1021.6
20180220204019 9 304 8.0 13.0 0.00 0.18 0.11 63 1021.5
20180220203519 9 305 8.0 13.0 0.00 0.18 0.11 63 1021.6
20180220203020 9 303 8.0 13.0 0.00 0.18 0.11 63 1021.6
20180220202520 9 310 8.0 13.0 0.00 0.18 0.11 63 1021.5
20180220202020 9 315 7.0 12.0 0.00 0.18 0.11 64 1021.4
20180220201520 9 312 8.0 13.0 0.00 0.18 0.11 64 1021.4
20180220201019 9 304 8.0 13.0 0.00 0.18 0.11 64 1021.3
20180220200519 8 305 9.0 13.0 0.00 0.18 0.11 64 1021.4
20180220200020 9 310 8.0 13.0 0.00 0.18 0.11 64 1021.3
20180220195520 9 315 7.0 11.0 0.00 0.18 0.11 64 1021.3
20180220195020 10 298 7.0 15.0 0.00 0.18 0.11 64 1021.4
20180220194519 9 293 6.0 15.0 0.00 0.18 0.11 65 1021.3
20180220194019 9 319 8.0 15.0 0.00 0.18 0.11 63 1021.2
20180220193519 9 318 8.0 15.0 0.00 0.18 0.11 64 1021.0
20180220193019 8 311 8.0 13.0 0.00 0.18 0.11 64 1021.1
20180220192519 9 320 10.0 17.0 0.00 0.18 0.11 64 1021.0
20180220192020 8 326 10.0 17.0 0.00 0.18 0.11 64 1020.9
20180220191523 8 320 11.0 21.0 0.00 0.18 0.11 64 1021.0
20180220191020 8 314 9.0 21.0 0.00 0.18 0.11 65 1021.1
20180220190520 8 317 8.0 13.0 0.00 0.18 0.11 65 1021.2
20180220190020 8 312 8.0 13.0 0.00 0.18 0.11 65 1021.3
20180220185519 8 305 7.0 13.0 0.00 0.18 0.11 65 1021.3
20180220185019 8 316 9.0 16.0 0.00 0.18 0.11 66 1021.4
20180220184519 7 316 11.0 19.0 0.00 0.18 0.11 66 1021.3
20180220184019 7 314 11.0 19.0 0.00 0.18 0.11 66 1021.3
20180220183519 7 317 10.0 17.0 0.00 0.18 0.11 66 1021.3
20180220183020 7 310 10.0 16.0 0.00 0.18 0.11 66 1021.4
20180220182520 7 309 10.0 16.0 0.00 0.18 0.11 67 1021.2
20180220182020 7 310 10.0 16.0 0.00 0.18 0.11 66 1021.2
20180220181520 7 310 10.0 17.0 0.00 0.18 0.11 67 1021.2
20180220181019 7 304 8.0 17.0 0.00 0.18 0.11 67 1021.3
20180220180519 7 309 9.0 18.0 0.00 0.18 0.11 67 1021.2
20180220180020 6 314 12.0 20.0 0.00 0.18 0.11 67 1021.3
20180220175520 6 312 11.0 20.0 0.00 0.18 0.11 67 1021.2
20180220175020 6 310 10.0 18.0 0.00 0.18 0.11 67 1021.2
20180220174520 6 306 10.0 17.0 0.00 0.18 0.11 68 1021.1
20180220174019 6 306 9.0 19.0 0.00 0.18 0.11 68 1021.0
20180220173519 6 308 9.0 19.0 0.00 0.18 0.11 67 1021.0
20180220173019 6 306 9.0 19.0 0.00 0.18 0.11 68 1021.0
20180220172519 6 302 10.0 19.0 0.00 0.18 0.11 68 1020.8
20180220172019 6 303 10.0 21.0 0.00 0.18 0.11 68 1020.8
20180220171519 5 305 10.0 21.0 0.00 0.18 0.11 68 1020.9
20180220171019 5 306 9.0 17.0 0.00 0.18 0.11 69 1020.8
20180220170520 5 313 10.0 17.0 0.00 0.18 0.11 68 1020.8
20180220170036 5 312 10.0 19.0 0.00 0.18 0.11 68 1020.9
20180220165519 5 302 8.0 19.0 0.00 0.18 0.11 68 1020.9
20180220165019 5 289 7.0 11.0 0.00 0.18 0.11 69 1020.9
20180220164519 5 305 8.0 15.0 0.00 0.18 0.11 68 1020.9
20180220164020 5 315 8.0 16.0 0.00 0.18 0.11 69 1020.8
20180220163520 5 310 6.0 16.0 0.00 0.18 0.11 68 1020.8
20180220163020 5 283 6.0 13.0 0.00 0.18 0.11 69 1020.7
20180220162519 4 275 6.0 13.0 0.00 0.18 0.11 71 1020.6
20180220162019 4 283 3.0 13.0 0.00 0.18 0.11 70 1020.5
20180220161519 4 308 4.0 15.0 0.00 0.18 0.11 71 1020.5
20180220161019 4 296 5.0 15.0 0.00 0.18 0.11 71 1020.5
20180220160520 3 273 6.0 18.0 0.00 0.18 0.11 72 1020.3
20180220160020 3 272 6.0 18.0 0.00 0.18 0.11 71 1020.4
20180220155521 3 277 6.0 15.0 0.00 0.18 0.11 72 1020.3
20180220155020 3 280 6.0 13.0 0.00 0.18 0.11 72 1020.2
20180220154520 3 280 4.0 12.0 0.00 0.18 0.11 72 1020.1
20180220154020 3 303 3.0 11.0 0.00 0.18 0.11 72 1019.9
20180220153520 3 296 3.0 11.0 0.00 0.18 0.11 72 1019.8
20180220153020 2 274 2.0 10.0 0.00 0.18 0.11 73 1019.8
20180220152520 2 292 2.0 11.0 0.00 0.18 0.11 73 1019.8
20180220152019 2 309 2.0 11.0 0.00 0.18 0.11 73 1019.7
20180220151519 2 302 2.0 10.0 0.00 0.18 0.11 74 1019.6
20180220151019 2 308 3.0 11.0 0.00 0.18 0.11 74 1019.4
20180220150519 1 315 5.0 17.0 0.00 0.18 0.11 74 1019.0
20180220150020 1 314 6.0 17.0 0.00 0.18 0.11 75 1018.6
20180220145520 1 316 7.0 16.0 0.00 0.18 0.11 75 1018.5
20180220145019 1 313 7.0 16.0 0.00 0.18 0.11 75 1018.4
20180220144519 1 312 6.0 16.0 0.00 0.18 0.11 75 1018.5
20180220144019 1 313 8.0 17.0 0.00 0.18 0.11 76 1018.5
20180220143519 1 310 9.0 17.0 0.00 0.18 0.11 76 1018.2
20180220143019 1 307 9.0 20.0 0.00 0.18 0.11 76 1018.1
20180220142519 1 307 9.0 20.0 0.00 0.18 0.11 76 1018.1
20180220142019 1 311 8.0 19.0 0.00 0.18 0.11 77 1018.1
20180220141519 1 311 9.0 19.0 0.00 0.18 0.11 77 1018.0
20180220141019 1 305 9.0 16.0 0.00 0.18 0.11 77 1017.9
20180220140519 1 306 7.0 16.0 0.01 0.18 0.11 78 1018.0
20180220140019 1 308 8.0 21.0 0.01 0.18 0.11 78 1017.6
20180220135519 1 308 10.0 21.0 0.01 0.18 0.11 78 1017.7
20180220135019 1 312 9.0 16.0 0.01 0.18 0.11 78 1017.7
20180220134519 1 315 7.0 16.0 0.01 0.18 0.11 79 1017.7
20180220134019 1 314 7.0 16.0 0.01 0.18 0.11 80 1017.6
20180220133519 1 310 8.0 16.0 0.01 0.18 0.11 80 1017.7
20180220133019 1 304 7.0 19.0 0.01 0.18 0.11 80 1017.8
20180220132519 1 300 5.0 19.0 0.01 0.18 0.11 79 1017.8
20180220132019 1 296 5.0 11.0 0.01 0.18 0.11 79 1017.9
20180220131519 1 295 5.0 11.0 0.01 0.18 0.11 79 1017.8
20180220131019 1 304 5.0 12.0 0.01 0.18 0.11 80 1017.8
20180220130519 1 299 6.0 12.0 0.00 0.17 0.10 80 1017.4
20180220130023 1 298 6.0 15.0 0.00 0.17 0.10 79 1017.2
20180220125519 1 320 7.0 16.0 0.00 0.17 0.10 79 1017.1
20180220125019 1 323 8.0 16.0 0.00 0.17 0.10 79 1016.8
20180220124519 1 313 7.0 13.0 0.00 0.17 0.10 79 1016.9
20180220124019 1 317 5.0 13.0 0.00 0.17 0.10 79 1017.2
20180220123519 1 309 6.0 15.0 0.01 0.17 0.10 79 1017.5
20180220123019 1 307 7.0 15.0 0.01 0.17 0.09 79 1017.4
20180220122519 1 314 7.0 15.0 0.01 0.17 0.09 79 1017.4
20180220122019 1 309 9.0 15.0 0.01 0.17 0.09 79 1017.2
20180220121519 1 309 8.0 16.0 0.01 0.17 0.09 79 1017.2
20180220121019 1 312 8.0 16.0 0.01 0.17 0.09 79 1017.3
20180220120519 1 309 7.0 16.0 0.01 0.17 0.09 79 1016.9
20180220120019 1 310 6.0 15.0 0.01 0.17 0.09 79 1016.9
20180220115519 1 309 6.0 15.0 0.01 0.17 0.09 79 1017.0
20180220115019 1 303 5.0 18.0 0.01 0.17 0.09 78 1016.8
20180220114519 1 297 8.0 19.0 0.01 0.17 0.09 78 1017.0
20180220114019 1 299 8.0 19.0 0.01 0.17 0.09 77 1016.7
20180220113519 1 304 7.0 19.0 0.00 0.16 0.08 78 1016.5
20180220113019 1 312 8.0 17.0 0.00 0.16 0.08 78 1016.3
20180220112519 1 316 10.0 18.0 0.00 0.16 0.08 78 1016.3
20180220112019 1 311 9.0 18.0 0.00 0.16 0.08 79 1016.2
20180220111520 1 307 8.0 15.0 0.00 0.16 0.08 78 1016.3
20180220111019 1 308 8.0 13.0 0.00 0.16 0.08 79 1015.9
20180220110519 1 311 7.0 13.0 0.00 0.16 0.08 79 1016.1
20180220110020 1 312 6.0 12.0 0.00 0.16 0.08 79 1016.2
20180220105519 1 309 6.0 12.0 0.00 0.16 0.08 79 1016.2